SCP
0 0 0 -0 -0 -0 -0 0 -0 0 0 0 0 -0 -0 0 -0 -0 -0 0 -0 -0 -0 -0 -0 -0 -0 -0 0 -0 -0 0
0 -0 0 -0 0 -0 -0 0 -0 0 -0 -0 0 0 0 -0 -0 -0 -0 -0 -0 -0 -0 -0 -0 -0 -0 0 0 -0 -0 0
0 -0 -0 -0 0 -0 -0 0 -0 -0 0 0 -0 -0 -0 -0 -0 -0 -0 -0 -0 -0 -0 -0 -0 -0 -0 -0 0 -0 -0 -0
0 -0 -0 0 -0 0 0 -0 0 0 -0 -0 -0 -0 0 -0 -0 0 0 0 -0 -0 -0 -0 -0 -0 -0 0 0 0 -0 -0
0 0 -0 0 -0 0 -0 -0 -0 -0 0 -0 0 0 -0 0 0 0 -0 -0 -0 -0 0 -0 -0 -0 -0 0 0 0 0 0
-0 -0 -0 0 -0 0 0 -0 0 0 -0 -0 0 0 -0 -0 -0 0 0 0 -0 -0 -0 -0 -0 0 -0 -0 -0 0 0 -0
-0 -0 0 -0 0 -0 -0 0 0 -0 0 0 -0 -0 -0 -0 0 0 0 0 0 0 -0 -0 -0 -0 -0 0 0 -0 -0 -0
0 -0 0 0 -0 -0 0 0 0 -0 0 -0 -0 -0 -0 -0 0 0 0 0 0 0 0 0 -0 -0 -0 -0 -0 -0 -0 0
0 0 0 -0 -0 -0 0 0 0 -0 0 -0 -0 -0 -0 -0 0 0 0 -0 -0 -0 -0 0 0 0 0 -0 -0 -0 0 0
-0 0 0 0 0 0 0 0 -0 -0 0 -0 -0 -0 -0 -0 0 0 0 -0 -0 -0 -0 -0 -0 0 0 0 -0 0 0 -0
0 0 0 0 0 0 0 0 -0 -0 -0 0 0 0 0 0 0 0 0 0 -0 -0 -0 -0 -0 -0 -0 -0 -0 -0 -0 -0
0 0 0 0 0 0 0 0 0 0 0 0 0 0 0 0 0 0 0 0 0 -0 -0 -0 -0 -0 -0 -0 0 -0 -0 -0
0 0 0 0 0 0 0 0 0 0 0 0 0 0 0 0 0 0 0 0 0 0 0 0 0 0 0 0 0 0 0 -0
0 0 0 0 0 0 0 0 0 0 0 0 0 0 0 0 0 0 0 0 0 0 0 0 0 0 0 0 0 0 0 0
0 0 0 0 0 0 0 0 0 0 0 0 0 0 0 0 0 0 0 0 0 0 0 0 0 0 0 0 0 0 0 0
0 0 0 0 0 0 0 0 0 0 0 0 0 0 0 0 0 0 0 0 0 0 0 0 0 0 0 0 0 0 0 0
0 0 0 0 0 0 0 0 0 0 0 0 0 0 0 0 0 0 0 0 0 0 0 0 0 0 0 0 0 0 0 0
0 0 0 0 0 0 0 0 0 0 0 0 0 0 0 0 0 0 0 0 0 0 0 0 0 0 0 0 0 0 0 0
0 0 0 0 0 0 0 0 0 0 0 0 0 0 0 0 0 0 0 0 0 0 0 0 0 0 0 0 0 0 0 0
0 0 0 0 0 0 0 0 0 0 0 0 0 0 0 0 0 0 0 0 0 0 0 0 0 0 0 0 0 0 0 0
Wind_Speed_500mb
8 6 4 6 4 5 15 16 9 4 15 11 8 24 37 30 45 40 38 35 32 30 30 33 34 36 35 33 31 30 30 29
8 3 3 9 17 18 16 25 11 15 13 17 21 21 24 42 41 37 36 34 31 30 29 30 32 33 32 31 28 26 25 25
7 6 4 13 12 24 15 12 13 10 9 13 18 27 31 35 36 34 36 34 32 29 27 27 28 28 29 29 26 23 21 19
1 4 5 11 13 5 17 11 29 34 30 9 38 32 31 29 29 27 29 32 30 29 26 25 24 24 24 24 23 22 19 18
10 7 6 8 9 14 37 22 11 25 7 30 37 33 31 32 31 29 27 27 28 25 24 22 19 19 18 19 18 18 18 16
9 12 11 18 9 23 20 9 16 5 10 17 47 42 34 32 34 30 29 29 28 26 22 19 16 15 13 13 13 12 13 13
13 17 11 25 13 19 7 10 12 11 33 50 51 49 42 39 35 32 29 29 31 30 26 24 20 18 17 15 11 9 6 6
15 15 19 27 23 18 9 11 14 43 51 52 52 51 50 45 43 39 35 32 32 30 29 24 20 20 17 15 13 10 8 4
3 30 51 37 19 12 13 7 3 31 51 59 64 52 48 48 40 36 33 29 27 29 27 22 19 22 24 19 17 15 13 10
21 35 42 34 22 14 16 16 38 48 52 56 58 54 49 47 39 33 29 24 28 35 30 24 21 21 22 23 23 23 22 22
43 43 45 26 12 13 35 37 41 46 49 52 52 47 42 41 38 34 32 29 28 28 29 26 24 20 21 24 26 27 28 28
35 30 29 27 25 8 21 39 44 48 46 42 39 38 34 31 33 32 32 33 30 26 25 27 24 20 19 20 20 20 22 28
17 25 8 39 5 6 45 45 44 41 38 35 28 23 25 21 19 22 23 25 27 27 25 25 26 25 24 22 21 20 21 21
10 13 15 8 12 13 44 48 40 36 33 29 25 18 13 10 12 14 14 17 20 20 21 22 26 26 26 26 24 22 21 21
10 21 4 6 9 27 47 44 43 37 33 29 25 18 13 11 12 15 17 15 17 19 18 21 25 28 31 29 28 28 25 25
27 31 20 10 13 28 52 49 45 43 38 34 29 21 14 9 7 9 13 17 18 18 18 21 24 26 26 24 26 25 22 22
33 9 13 28 12 31 43 39 44 45 42 38 31 26 17 11 6 3 6 7 11 14 15 18 20 22 23 23 20 19 19 21
12 12 18 12 9 12 30 21 46 53 49 47 43 34 22 13 7 3 3 7 8 8 10 12 16 19 18 17 20 17 17 20
13 8 9 16 6 13 13 15 37 50 51 51 49 39 27 18 12 11 7 5 6 7 6 7 9 7 9 10 8 6 7 8
15 12 12 12 10 15 24 17 28 47 54 55 46 33 26 20 17 14 16 16 13 12 11 11 10 6 7 8 4 4 9 13
Wind_Direction_500mb
100 103 181 218 163 90 335 353 49 92 53 82 96 108 140 162 149 162 146 145 145 145 142 133 128 126 127 128 129 131 129 124
77 312 43 265 163 142 346 354 20 116 61 60 120 117 144 152 158 155 145 145 149 148 144 136 131 131 131 130 130 131 130 124
96 146 289 298 160 165 97 340 314 239 93 91 164 127 149 157 159 153 145 150 153 150 146 141 138 137 133 132 133 131 126 122
31 84 115 345 90 88 121 207 135 117 107 74 138 120 131 149 150 151 147 151 154 150 149 146 144 139 134 132 131 128 123 120
161 185 130 175 181 173 152 198 313 154 83 144 143 131 131 141 152 147 147 151 153 150 148 148 144 139 139 133 134 132 130 126
199 204 215 156 149 172 159 212 135 283 154 168 155 144 145 149 149 143 146 150 149 148 144 142 140 142 141 141 147 147 145 140
197 181 181 151 158 174 179 156 48 68 145 148 160 157 147 143 144 146 148 149 150 147 145 142 149 161 160 159 164 165 151 143
191 194 163 159 155 174 164 127 97 89 133 154 160 159 151 146 145 150 147 146 148 150 149 145 152 168 173 173 174 174 166 166
88 148 147 159 184 197 184 67 103 121 131 150 161 162 159 152 155 159 157 162 166 169 165 165 159 163 171 159 152 142 139 147
161 145 145 146 155 103 84 109 145 144 148 153 159 158 160 156 161 164 171 175 182 189 180 191 188 190 185 189 185 188 198 202
155 148 143 144 112 128 103 123 141 145 149 149 148 146 150 153 160 170 169 171 175 180 201 204 213 214 218 221 223 223 227 229
154 161 139 131 145 123 141 147 138 144 135 136 137 139 142 147 153 161 164 170 176 178 188 194 198 199 208 208 216 225 233 241
138 144 141 143 43 126 157 163 141 136 135 139 138 146 153 153 158 164 177 177 182 190 191 196 202 207 207 214 212 220 229 237
240 196 180 251 205 152 169 165 148 147 147 147 143 154 161 176 192 197 202 200 200 199 200 205 216 222 223 224 231 235 237 243
173 224 170 252 222 180 179 178 165 169 164 163 160 165 176 199 219 223 225 225 220 217 218 218 220 225 232 236 241 245 249 255
179 210 208 177 245 167 184 185 174 178 171 168 170 166 167 171 177 198 203 212 212 211 214 224 226 225 228 227 232 241 251 260
209 229 142 216 213 189 179 179 167 169 170 168 166 158 165 168 154 127 152 174 181 188 193 209 215 221 228 236 245 259 272 283
261 217 163 161 260 198 187 191 177 172 174 167 159 155 145 133 131 159 88 76 97 132 157 190 214 224 228 241 250 261 276 281
185 92 50 117 347 198 213 184 189 195 191 181 172 164 158 142 119 93 100 86 84 93 114 146 176 208 219 240 253 266 303 321
143 131 204 184 235 215 199 189 184 187 190 180 173 168 157 146 124 103 93 91 98 99 95 104 111 167 184 197 189 30 12 15
Wind_Speed_850mb
8 6 4 6 4 5 15 16 9 4 15 11 8 24 37 30 45 40 38 35 32 30 30 33 34 36 35 33 31 30 30 29
8 3 3 9 17 18 16 25 11 15 13 17 21 21 24 42 41 37 36 34 31 30 29 30 32 33 32 31 28 26 25 25
7 6 4 13 12 24 15 12 13 10 9 13 18 27 31 35 36 34 36 34 32 29 27 27 28 28 29 29 26 23 21 19
1 4 5 11 13 5 17 11 29 34 30 9 38 32 31 29 29 27 29 32 30 29 26 25 24 24 24 24 23 22 19 18
10 7 6 8 9 14 37 22 11 25 7 30 37 33 31 32 31 29 27 27 28 25 24 22 19 19 18 19 18 18 18 16
9 12 11 18 9 23 20 9 16 5 10 17 47 42 34 32 34 30 29 29 28 26 22 19 16 15 13 13 13 12 13 13
13 17 11 25 13 19 7 10 12 11 33 50 51 49 42 39 35 32 29 29 31 30 26 24 20 18 17 15 11 9 6 6
15 15 19 27 23 18 9 11 14 43 51 52 52 51 50 45 43 39 35 32 32 30 29 24 20 20 17 15 13 10 8 4
3 30 51 37 19 12 13 7 3 31 51 59 64 52 48 48 40 36 33 29 27 29 27 22 19 22 24 19 17 15 13 10
21 35 42 34 22 14 16 16 38 48 52 56 58 54 49 47 39 33 29 24 28 35 30 24 21 21 22 23 23 23 22 22
43 43 45 26 12 13 35 37 41 46 49 52 52 47 42 41 38 34 32 29 28 28 29 26 24 20 21 24 26 27 28 28
35 30 29 27 25 8 21 39 44 48 46 42 39 38 34 31 33 32 32 33 30 26 25 27 24 20 19 20 20 20 22 28
17 25 8 39 5 6 45 45 44 41 38 35 28 23 25 21 19 22 23 25 27 27 25 25 26 25 24 22 21 20 21 21
10 13 15 8 12 13 44 48 40 36 33 29 25 18 13 10 12 14 14 17 20 20 21 22 26 26 26 26 24 22 21 21
10 21 4 6 9 27 47 44 43 37 33 29 25 18 13 11 12 15 17 15 17 19 18 21 25 28 31 29 28 28 25 25
27 31 20 10 13 28 52 49 45 43 38 34 29 21 14 9 7 9 13 17 18 18 18 21 24 26 26 24 26 25 22 22
33 9 13 28 12 31 43 39 44 45 42 38 31 26 17 11 6 3 6 7 11 14 15 18 20 22 23 23 20 19 19 21
12 12 18 12 9 12 30 21 46 53 49 47 43 34 22 13 7 3 3 7 8 8 10 12 16 19 18 17 20 17 17 20
13 8 9 16 6 13 13 15 37 50 51 51 49 39 27 18 12 11 7 5 6 7 6 7 9 7 9 10 8 6 7 8
15 12 12 12 10 15 24 17 28 47 54 55 46 33 26 20 17 14 16 16 13 12 11 11 10 6 7 8 4 4 9 13
Wind_Direction_850mb
100 103 181 218 163 90 335 353 49 92 53 82 96 108 140 162 149 162 146 145 145 145 142 133 128 126 127 128 129 131 129 124
77 312 43 265 163 142 346 354 20 116 61 60 120 117 144 152 158 155 145 145 149 148 144 136 131 131 131 130 130 131 130 124
96 146 289 298 160 165 97 340 314 239 93 91 164 127 149 157 159 153 145 150 153 150 146 141 138 137 133 132 133 131 126 122
31 84 115 345 90 88 121 207 135 117 107 74 138 120 131 149 150 151 147 151 154 150 149 146 144 139 134 132 131 128 123 120
161 185 130 175 181 173 152 198 313 154 83 144 143 131 131 141 152 147 147 151 153 150 148 148 144 139 139 133 134 132 130 126
199 204 215 156 149 172 159 212 135 283 154 168 155 144 145 149 149 143 146 150 149 148 144 142 140 142 141 141 147 147 145 140
197 181 181 151 158 174 179 156 48 68 145 148 160 157 147 143 144 146 148 149 150 147 145 142 149 161 160 159 164 165 151 143
191 194 163 159 155 174 164 127 97 89 133 154 160 159 151 146 145 150 147 146 148 150 149 145 152 168 173 173 174 174 166 166
88 148 147 159 184 197 184 67 103 121 131 150 161 162 159 152 155 159 157 162 166 169 165 165 159 163 171 159 152 142 139 147
161 145 145 146 155 103 84 109 145 144 148 153 159 158 160 156 161 164 171 175 182 189 180 191 188 190 185 189 185 188 198 202
155 148 143 144 112 128 103 123 141 145 149 149 148 146 150 153 160 170 169 171 175 180 201 204 213 214 218 221 223 223 227 229
154 161 139 131 145 123 141 147 138 144 135 136 137 139 142 147 153 161 164 170 176 178 188 194 198 199 208 208 216 225 233 241
138 144 141 143 43 126 157 163 141 136 135 139 138 146 153 153 158 164 177 177 182 190 191 196 202 207 207 214 212 220 229 237
240 196 180 251 205 152 169 165 148 147 147 147 143 154 161 176 192 197 202 200 200 199 200 205 216 222 223 224 231 235 237 243
173 224 170 252 222 180 179 178 165 169 164 163 160 165 176 199 219 223 225 225 220 217 218 218 220 225 232 236 241 245 249 255
179 210 208 177 245 167 184 185 174 178 171 168 170 166 167 171 177 198 203 212 212 211 214 224 226 225 228 227 232 241 251 260
209 229 142 216 213 189 179 179 167 169 170 168 166 158 165 168 154 127 152 174 181 188 193 209 215 221 228 236 245 259 272 283
261 217 163 161 260 198 187 191 177 172 174 167 159 155 145 133 131 159 88 76 97 132 157 190 214 224 228 241 250 261 276 281
185 92 50 117 347 198 213 184 189 195 191 181 172 164 158 142 119 93 100 86 84 93 114 146 176 208 219 240 253 266 303 321
143 131 204 184 235 215 199 189 184 187 190 180 173 168 157 146 124 103 93 91 98 99 95 104 111 167 184 197 189 30 12 15